Colorado River (Arizona), Lees Ferry (09380000)

StateArizonaLatestUnknown (6210 cfs)
RiverColorado RiverRatingObservedEstimated
Updated2026-05-05 8:00 (40 minutes ago)Flood - The river is flooding. Obstacles can be treacherous or deadly. The river should be avoided at this stage for casual trips and definitely for the inexperienced. Trips should be attempted only with protective gear and equipment.Flood(none)(none)
Discharge6210 cfs (median: 15000 cfs)High - The river is high and potentially dangerous, especially for the young and / or inexperienced. Normal stream obstacles are sometimes difficult to navigate. Extended distances can be attempted, but canoe travel may not be advisable.High(none)(none)
Height7.49 feetGood - Conditions are ideal for a canoe or kayak. Boats typically will drag on fewer than one-quarter of riffles, if at all, and portages are unnecessary or rare. Normal float lengths can be attempted without a problem.Good(none)(none)
TrendFalling (rising over 24 hours)Low - River is low but can still be floated. Some riffles are okay but most come with significant dragging and might need a portage. Float lengths should be reduced to accommodate low flow, dragging, and portages.Low(none)(none)
USGSExternal icon USGS Site (External icon Duck Duck Go Maps)Poor - River is too low to float comfortably. Most or all riffles will drag or must be portaged and some obstacles (such as slick shelf rock) cause undue problems. Avoid the river at this stage for casual paddling trips.Poor(none)(none)

Trending Data

Plot Image

Trips for Colorado River (Arizona), Lees Ferry (09380000)

DateStartEndDistanceConditionDischargeHeightFishingDetails

A total of 0 rows are displayed.

Condition Descriptions

Fishing Conditions

Fish Species

Notes

Classic Trip List

The classic River Trips application is still available for use. It is updated with the new system using a data retrofit. It is no longer maintained. The original River Trips application is no longer updated (as of 1 Dec 2016) but can be checked for errors or for the condition of the data before it was converted to the new system.

Gauge Data Table

ObservationHeightDischargeMaximum
Discharge
Minimum
Discharge
Mean
Discharge
P05P10P20P25P50
(Median)
P75P80P90P95
2026-05-05 08:00 7.49 6210 77500 (1952) 1010 (1963) 21000 6720 8750 10300 10500 15000 27000 31700 47800 57800
2026-05-05 07:00 7.53 6320 77500 (1952) 1010 (1963) 21000 6720 8750 10300 10500 15000 27000 31700 47800 57800
2026-05-05 06:00 7.60 6530 77500 (1952) 1010 (1963) 21000 6720 8750 10300 10500 15000 27000 31700 47800 57800
2026-05-05 05:00 7.72 6900 77500 (1952) 1010 (1963) 21000 6720 8750 10300 10500 15000 27000 31700 47800 57800
2026-05-05 04:00 7.87 7370 77500 (1952) 1010 (1963) 21000 6720 8750 10300 10500 15000 27000 31700 47800 57800
2026-05-05 03:00 8.07 8040 77500 (1952) 1010 (1963) 21000 6720 8750 10300 10500 15000 27000 31700 47800 57800
2026-05-05 02:00 8.25 8660 77500 (1952) 1010 (1963) 21000 6720 8750 10300 10500 15000 27000 31700 47800 57800
2026-05-05 01:00 8.30 8840 77500 (1952) 1010 (1963) 21000 6720 8750 10300 10500 15000 27000 31700 47800 57800
2026-05-05 00:00 8.26 8700 77500 (1952) 1010 (1963) 21000 6720 8750 10300 10500 15000 27000 31700 47800 57800
2026-05-04 23:00 8.17 8380 77500 (1952) 1010 (1963) 21000 6720 8750 10300 10500 15000 27000 31700 47800 57800
2026-05-04 22:00 8.11 8170 69600 (1952) 1010 (1963) 20600 7690 8730 10300 10400 14400 26200 29600 48300 55700
2026-05-04 21:00 8.11 8170 69600 (1952) 1010 (1963) 20600 7690 8730 10300 10400 14400 26200 29600 48300 55700
2026-05-04 20:00 8.10 8140 69600 (1952) 1010 (1963) 20600 7690 8730 10300 10400 14400 26200 29600 48300 55700
2026-05-04 19:00 8.11 8170 69600 (1952) 1010 (1963) 20600 7690 8730 10300 10400 14400 26200 29600 48300 55700
2026-05-04 18:00 8.11 8170 69600 (1952) 1010 (1963) 20600 7690 8730 10300 10400 14400 26200 29600 48300 55700
2026-05-04 17:00 8.09 8110 69600 (1952) 1010 (1963) 20600 7690 8730 10300 10400 14400 26200 29600 48300 55700
2026-05-04 16:00 8.09 8110 69600 (1952) 1010 (1963) 20600 7690 8730 10300 10400 14400 26200 29600 48300 55700
2026-05-04 15:00 8.09 8110 69600 (1952) 1010 (1963) 20600 7690 8730 10300 10400 14400 26200 29600 48300 55700
2026-05-04 14:00 8.05 7970 69600 (1952) 1010 (1963) 20600 7690 8730 10300 10400 14400 26200 29600 48300 55700
2026-05-04 13:00 8.00 7800 69600 (1952) 1010 (1963) 20600 7690 8730 10300 10400 14400 26200 29600 48300 55700
2026-05-04 12:00 7.93 7570 69600 (1952) 1010 (1963) 20600 7690 8730 10300 10400 14400 26200 29600 48300 55700
2026-05-04 11:00 7.80 7150 69600 (1952) 1010 (1963) 20600 7690 8730 10300 10400 14400 26200 29600 48300 55700
2026-05-04 10:00 7.63 6620 69600 (1952) 1010 (1963) 20600 7690 8730 10300 10400 14400 26200 29600 48300 55700
2026-05-04 09:00 7.50 6240 69600 (1952) 1010 (1963) 20600 7690 8730 10300 10400 14400 26200 29600 48300 55700
2026-05-04 08:00 7.47 6150 69600 (1952) 1010 (1963) 20600 7690 8730 10300 10400 14400 26200 29600 48300 55700
2026-05-04 07:00 7.47 6150 69600 (1952) 1010 (1963) 20600 7690 8730 10300 10400 14400 26200 29600 48300 55700
2026-05-04 06:00 7.49 6210 69600 (1952) 1010 (1963) 20600 7690 8730 10300 10400 14400 26200 29600 48300 55700
2026-05-04 05:00 7.52 6290 69600 (1952) 1010 (1963) 20600 7690 8730 10300 10400 14400 26200 29600 48300 55700
2026-05-04 04:00 7.58 6470 69600 (1952) 1010 (1963) 20600 7690 8730 10300 10400 14400 26200 29600 48300 55700
2026-05-04 03:00 7.67 6740 69600 (1952) 1010 (1963) 20600 7690 8730 10300 10400 14400 26200 29600 48300 55700
2026-05-04 02:00 7.79 7120 69600 (1952) 1010 (1963) 20600 7690 8730 10300 10400 14400 26200 29600 48300 55700
2026-05-04 01:00 7.95 7640 69600 (1952) 1010 (1963) 20600 7690 8730 10300 10400 14400 26200 29600 48300 55700
2026-05-03 23:00 8140 69600 (1952) 1010 (1963) 20600 7690 8730 10300 10400 14400 26200 29600 48300 55700
2026-05-03 22:00 8.06 8000 69000 (1938) 1020 (1963) 19900 7740 8970 10100 10200 14600 25200 27400 46500 51300
2026-05-03 21:00 8.11 8170 69000 (1938) 1020 (1963) 19900 7740 8970 10100 10200 14600 25200 27400 46500 51300
2026-05-03 20:00 8.11 8170 69000 (1938) 1020 (1963) 19900 7740 8970 10100 10200 14600 25200 27400 46500 51300
2026-05-03 19:00 8.09 8110 69000 (1938) 1020 (1963) 19900 7740 8970 10100 10200 14600 25200 27400 46500 51300
2026-05-03 18:00 8.05 7970 69000 (1938) 1020 (1963) 19900 7740 8970 10100 10200 14600 25200 27400 46500 51300
2026-05-03 17:00 8.06 8000 69000 (1938) 1020 (1963) 19900 7740 8970 10100 10200 14600 25200 27400 46500 51300
2026-05-03 16:00 8.05 7970 69000 (1938) 1020 (1963) 19900 7740 8970 10100 10200 14600 25200 27400 46500 51300
2026-05-03 15:00 8.01 7840 69000 (1938) 1020 (1963) 19900 7740 8970 10100 10200 14600 25200 27400 46500 51300
2026-05-03 14:00 7.93 7570 69000 (1938) 1020 (1963) 19900 7740 8970 10100 10200 14600 25200 27400 46500 51300
2026-05-03 13:00 7.80 7150 69000 (1938) 1020 (1963) 19900 7740 8970 10100 10200 14600 25200 27400 46500 51300
2026-05-03 12:00 7.63 6620 69000 (1938) 1020 (1963) 19900 7740 8970 10100 10200 14600 25200 27400 46500 51300
2026-05-03 11:00 7.49 6210 69000 (1938) 1020 (1963) 19900 7740 8970 10100 10200 14600 25200 27400 46500 51300
2026-05-03 10:00 7.47 6150 69000 (1938) 1020 (1963) 19900 7740 8970 10100 10200 14600 25200 27400 46500 51300
2026-05-03 09:00 7.47 6150 69000 (1938) 1020 (1963) 19900 7740 8970 10100 10200 14600 25200 27400 46500 51300
2026-05-03 08:00 7.47 6150 69000 (1938) 1020 (1963) 19900 7740 8970 10100 10200 14600 25200 27400 46500 51300
2026-05-03 07:00 7.49 6210 69000 (1938) 1020 (1963) 19900 7740 8970 10100 10200 14600 25200 27400 46500 51300
2026-05-03 06:00 7.50 6240 69000 (1938) 1020 (1963) 19900 7740 8970 10100 10200 14600 25200 27400 46500 51300
2026-05-03 05:00 7.53 6320 69000 (1938) 1020 (1963) 19900 7740 8970 10100 10200 14600 25200 27400 46500 51300
2026-05-03 04:00 7.58 6470 69000 (1938) 1020 (1963) 19900 7740 8970 10100 10200 14600 25200 27400 46500 51300
2026-05-03 03:00 7.67 6740 69000 (1938) 1020 (1963) 19900 7740 8970 10100 10200 14600 25200 27400 46500 51300
2026-05-03 02:00 7.80 7150 69000 (1938) 1020 (1963) 19900 7740 8970 10100 10200 14600 25200 27400 46500 51300
2026-05-03 01:00 7.96 7670 69000 (1938) 1020 (1963) 19900 7740 8970 10100 10200 14600 25200 27400 46500 51300
2026-05-03 00:00 8.08 8070 69000 (1938) 1020 (1963) 19900 7740 8970 10100 10200 14600 25200 27400 46500 51300
2026-05-02 23:00 8.11 8170 69000 (1938) 1020 (1963) 19900 7740 8970 10100 10200 14600 25200 27400 46500 51300
2026-05-02 22:00 8.11 8170 70800 (1952) 1030 (1963) 19500 7520 8780 9950 10200 14200 24700 26800 42300 50300
2026-05-02 21:00 8.10 8140 70800 (1952) 1030 (1963) 19500 7520 8780 9950 10200 14200 24700 26800 42300 50300
2026-05-02 20:00 8.11 8170 70800 (1952) 1030 (1963) 19500 7520 8780 9950 10200 14200 24700 26800 42300 50300
2026-05-02 19:00 8.11 8170 70800 (1952) 1030 (1963) 19500 7520 8780 9950 10200 14200 24700 26800 42300 50300
2026-05-02 18:00 8.09 8110 70800 (1952) 1030 (1963) 19500 7520 8780 9950 10200 14200 24700 26800 42300 50300
2026-05-02 17:00 8.09 8110 70800 (1952) 1030 (1963) 19500 7520 8780 9950 10200 14200 24700 26800 42300 50300
2026-05-02 16:00 8.07 8040 70800 (1952) 1030 (1963) 19500 7520 8780 9950 10200 14200 24700 26800 42300 50300
2026-05-02 15:00 8.03 7900 70800 (1952) 1030 (1963) 19500 7520 8780 9950 10200 14200 24700 26800 42300 50300
2026-05-02 14:00 7.94 7600 70800 (1952) 1030 (1963) 19500 7520 8780 9950 10200 14200 24700 26800 42300 50300
2026-05-02 13:00 7.81 7180 70800 (1952) 1030 (1963) 19500 7520 8780 9950 10200 14200 24700 26800 42300 50300
2026-05-02 12:00 7.64 6650 70800 (1952) 1030 (1963) 19500 7520 8780 9950 10200 14200 24700 26800 42300 50300
2026-05-02 11:00 7.49 6210 70800 (1952) 1030 (1963) 19500 7520 8780 9950 10200 14200 24700 26800 42300 50300
2026-05-02 10:00 7.47 6150 70800 (1952) 1030 (1963) 19500 7520 8780 9950 10200 14200 24700 26800 42300 50300
2026-05-02 09:00 7.48 6180 70800 (1952) 1030 (1963) 19500 7520 8780 9950 10200 14200 24700 26800 42300 50300
2026-05-02 08:00 7.50 6240 70800 (1952) 1030 (1963) 19500 7520 8780 9950 10200 14200 24700 26800 42300 50300
2026-05-02 07:00 7.54 6350 70800 (1952) 1030 (1963) 19500 7520 8780 9950 10200 14200 24700 26800 42300 50300
2026-05-02 06:00 7.61 6560 70800 (1952) 1030 (1963) 19500 7520 8780 9950 10200 14200 24700 26800 42300 50300
2026-05-02 05:00 7.71 6870 70800 (1952) 1030 (1963) 19500 7520 8780 9950 10200 14200 24700 26800 42300 50300
2026-05-02 04:00 7.86 7340 70800 (1952) 1030 (1963) 19500 7520 8780 9950 10200 14200 24700 26800 42300 50300
2026-05-02 03:00 8.06 8000 70800 (1952) 1030 (1963) 19500 7520 8780 9950 10200 14200 24700 26800 42300 50300
2026-05-02 02:00 8.23 8590 70800 (1952) 1030 (1963) 19500 7520 8780 9950 10200 14200 24700 26800 42300 50300
2026-05-02 01:00 8.31 8880 70800 (1952) 1030 (1963) 19500 7520 8780 9950 10200 14200 24700 26800 42300 50300
2026-05-02 00:00 8.28 8770 70800 (1952) 1030 (1963) 19500 7520 8780 9950 10200 14200 24700 26800 42300 50300
2026-05-01 23:00 8.19 8450 70800 (1952) 1030 (1963) 19500 7520 8780 9950 10200 14200 24700 26800 42300 50300
2026-05-01 22:00 8.12 8210 78600 (1952) 1020 (1963) 19500 7140 8760 10100 10300 14700 24800 27700 41100 47400
2026-05-01 21:00 8.11 8170 78600 (1952) 1020 (1963) 19500 7140 8760 10100 10300 14700 24800 27700 41100 47400
2026-05-01 20:00 8.10 8140 78600 (1952) 1020 (1963) 19500 7140 8760 10100 10300 14700 24800 27700 41100 47400
2026-05-01 19:00 8.11 8170 78600 (1952) 1020 (1963) 19500 7140 8760 10100 10300 14700 24800 27700 41100 47400
2026-05-01 18:00 8.10 8140 78600 (1952) 1020 (1963) 19500 7140 8760 10100 10300 14700 24800 27700 41100 47400
2026-05-01 17:00 8.11 8170 78600 (1952) 1020 (1963) 19500 7140 8760 10100 10300 14700 24800 27700 41100 47400
2026-05-01 16:00 8.09 8110 78600 (1952) 1020 (1963) 19500 7140 8760 10100 10300 14700 24800 27700 41100 47400
2026-05-01 15:00 8.06 8000 78600 (1952) 1020 (1963) 19500 7140 8760 10100 10300 14700 24800 27700 41100 47400
2026-05-01 14:00 8.03 7900 78600 (1952) 1020 (1963) 19500 7140 8760 10100 10300 14700 24800 27700 41100 47400
2026-05-01 13:00 8.00 7800 78600 (1952) 1020 (1963) 19500 7140 8760 10100 10300 14700 24800 27700 41100 47400
2026-05-01 12:00 7.94 7600 78600 (1952) 1020 (1963) 19500 7140 8760 10100 10300 14700 24800 27700 41100 47400
2026-05-01 11:00 7.83 7250 78600 (1952) 1020 (1963) 19500 7140 8760 10100 10300 14700 24800 27700 41100 47400
2026-05-01 10:00 7.69 6810 78600 (1952) 1020 (1963) 19500 7140 8760 10100 10300 14700 24800 27700 41100 47400
2026-05-01 09:00 7.56 6410 78600 (1952) 1020 (1963) 19500 7140 8760 10100 10300 14700 24800 27700 41100 47400
2026-05-01 08:00 7.49 6210 78600 (1952) 1020 (1963) 19500 7140 8760 10100 10300 14700 24800 27700 41100 47400
2026-05-01 07:00 7.46 6120 78600 (1952) 1020 (1963) 19500 7140 8760 10100 10300 14700 24800 27700 41100 47400
2026-05-01 06:00 7.46 6120 78600 (1952) 1020 (1963) 19500 7140 8760 10100 10300 14700 24800 27700 41100 47400
2026-05-01 05:00 7.48 6180 78600 (1952) 1020 (1963) 19500 7140 8760 10100 10300 14700 24800 27700 41100 47400
2026-05-01 04:00 7.52 6290 78600 (1952) 1020 (1963) 19500 7140 8760 10100 10300 14700 24800 27700 41100 47400
2026-05-01 03:00 7.57 6440 78600 (1952) 1020 (1963) 19500 7140 8760 10100 10300 14700 24800 27700 41100 47400
2026-05-01 02:00 7.66 6710 78600 (1952) 1020 (1963) 19500 7140 8760 10100 10300 14700 24800 27700 41100 47400
2026-05-01 01:00 7.80 7150 78600 (1952) 1020 (1963) 19500 7140 8760 10100 10300 14700 24800 27700 41100 47400
2026-05-01 00:00 7.97 7700 78600 (1952) 1020 (1963) 19500 7140 8760 10100 10300 14700 24800 27700 41100 47400
2026-04-30 23:00 8.08 8070 78600 (1952) 1020 (1963) 19500 7140 8760 10100 10300 14700 24800 27700 41100 47400
2026-04-30 22:00 8.10 8140 75100 (1952) 986 (1977) 19500 6510 8530 9770 10300 14100 25300 28600 39400 49400
2026-04-30 21:00 8.11 8170 75100 (1952) 986 (1977) 19500 6510 8530 9770 10300 14100 25300 28600 39400 49400
2026-04-30 20:00 8.09 8110 75100 (1952) 986 (1977) 19500 6510 8530 9770 10300 14100 25300 28600 39400 49400
2026-04-30 19:00 8.10 8140 75100 (1952) 986 (1977) 19500 6510 8530 9770 10300 14100 25300 28600 39400 49400
2026-04-30 18:00 8.07 8040 75100 (1952) 986 (1977) 19500 6510 8530 9770 10300 14100 25300 28600 39400 49400
2026-04-30 17:00 8.08 8070 75100 (1952) 986 (1977) 19500 6510 8530 9770 10300 14100 25300 28600 39400 49400
2026-04-30 16:00 8.03 7900 75100 (1952) 986 (1977) 19500 6510 8530 9770 10300 14100 25300 28600 39400 49400
2026-04-30 15:00 8.01 7840 75100 (1952) 986 (1977) 19500 6510 8530 9770 10300 14100 25300 28600 39400 49400
2026-04-30 14:00 7.91 7500 75100 (1952) 986 (1977) 19500 6510 8530 9770 10300 14100 25300 28600 39400 49400
2026-04-30 13:00 7.80 7150 75100 (1952) 986 (1977) 19500 6510 8530 9770 10300 14100 25300 28600 39400 49400
2026-04-30 12:00 7.62 6590 75100 (1952) 986 (1977) 19500 6510 8530 9770 10300 14100 25300 28600 39400 49400
2026-04-30 11:00 7.46 6120 75100 (1952) 986 (1977) 19500 6510 8530 9770 10300 14100 25300 28600 39400 49400
2026-04-30 10:00 7.45 6090 75100 (1952) 986 (1977) 19500 6510 8530 9770 10300 14100 25300 28600 39400 49400
2026-04-30 09:00 7.45 6090 75100 (1952) 986 (1977) 19500 6510 8530 9770 10300 14100 25300 28600 39400 49400
2026-04-30 08:00 7.45 6090 75100 (1952) 986 (1977) 19500 6510 8530 9770 10300 14100 25300 28600 39400 49400
2026-04-30 07:00 7.47 6150 75100 (1952) 986 (1977) 19500 6510 8530 9770 10300 14100 25300 28600 39400 49400
2026-04-30 06:00 7.48 6180 75100 (1952) 986 (1977) 19500 6510 8530 9770 10300 14100 25300 28600 39400 49400
2026-04-30 05:00 7.49 6210 75100 (1952) 986 (1977) 19500 6510 8530 9770 10300 14100 25300 28600 39400 49400
2026-04-30 04:00 7.53 6320 75100 (1952) 986 (1977) 19500 6510 8530 9770 10300 14100 25300 28600 39400 49400
2026-04-30 03:00 7.58 6470 75100 (1952) 986 (1977) 19500 6510 8530 9770 10300 14100 25300 28600 39400 49400
2026-04-30 02:00 7.68 6780 75100 (1952) 986 (1977) 19500 6510 8530 9770 10300 14100 25300 28600 39400 49400
2026-04-30 01:00 7.80 7150 75100 (1952) 986 (1977) 19500 6510 8530 9770 10300 14100 25300 28600 39400 49400
2026-04-30 00:00 7.97 7700 75100 (1952) 986 (1977) 19500 6510 8530 9770 10300 14100 25300 28600 39400 49400
2026-04-29 23:00 8.09 8110 75100 (1952) 986 (1977) 19500 6510 8530 9770 10300 14100 25300 28600 39400 49400
2026-04-29 22:00 8.12 8210 68500 (1952) 1030 (1963) 19500 6720 8850 10000 10300 13800 24400 28800 40100 50400
2026-04-29 21:00 8.11 8170 68500 (1952) 1030 (1963) 19500 6720 8850 10000 10300 13800 24400 28800 40100 50400
2026-04-29 20:00 8.11 8170 68500 (1952) 1030 (1963) 19500 6720 8850 10000 10300 13800 24400 28800 40100 50400
2026-04-29 19:00 8.11 8170 68500 (1952) 1030 (1963) 19500 6720 8850 10000 10300 13800 24400 28800 40100 50400
2026-04-29 18:00 8.11 8170 68500 (1952) 1030 (1963) 19500 6720 8850 10000 10300 13800 24400 28800 40100 50400
2026-04-29 17:00 8.08 8070 68500 (1952) 1030 (1963) 19500 6720 8850 10000 10300 13800 24400 28800 40100 50400
2026-04-29 16:00 8.06 8000 68500 (1952) 1030 (1963) 19500 6720 8850 10000 10300 13800 24400 28800 40100 50400
2026-04-29 15:00 8.02 7870 68500 (1952) 1030 (1963) 19500 6720 8850 10000 10300 13800 24400 28800 40100 50400
2026-04-29 14:00 7.92 7540 68500 (1952) 1030 (1963) 19500 6720 8850 10000 10300 13800 24400 28800 40100 50400
2026-04-29 13:00 7.80 7150 68500 (1952) 1030 (1963) 19500 6720 8850 10000 10300 13800 24400 28800 40100 50400
2026-04-29 12:00 7.62 6590 68500 (1952) 1030 (1963) 19500 6720 8850 10000 10300 13800 24400 28800 40100 50400
2026-04-29 11:00 7.48 6180 68500 (1952) 1030 (1963) 19500 6720 8850 10000 10300 13800 24400 28800 40100 50400
2026-04-29 10:00 7.45 6090 68500 (1952) 1030 (1963) 19500 6720 8850 10000 10300 13800 24400 28800 40100 50400
2026-04-29 09:00 7.46 6120 68500 (1952) 1030 (1963) 19500 6720 8850 10000 10300 13800 24400 28800 40100 50400
2026-04-29 08:00 7.47 6150 68500 (1952) 1030 (1963) 19500 6720 8850 10000 10300 13800 24400 28800 40100 50400
2026-04-29 07:00 7.47 6150 68500 (1952) 1030 (1963) 19500 6720 8850 10000 10300 13800 24400 28800 40100 50400
2026-04-29 06:00 7.49 6210 68500 (1952) 1030 (1963) 19500 6720 8850 10000 10300 13800 24400 28800 40100 50400
2026-04-29 05:00 7.50 6240 68500 (1952) 1030 (1963) 19500 6720 8850 10000 10300 13800 24400 28800 40100 50400
2026-04-29 04:00 7.53 6320 68500 (1952) 1030 (1963) 19500 6720 8850 10000 10300 13800 24400 28800 40100 50400
2026-04-29 03:00 7.59 6500 68500 (1952) 1030 (1963) 19500 6720 8850 10000 10300 13800 24400 28800 40100 50400
2026-04-29 02:00 7.67 6740 68500 (1952) 1030 (1963) 19500 6720 8850 10000 10300 13800 24400 28800 40100 50400
2026-04-29 01:00 7.80 7150 68500 (1952) 1030 (1963) 19500 6720 8850 10000 10300 13800 24400 28800 40100 50400
2026-04-29 00:00 7.97 7700 68500 (1952) 1030 (1963) 19500 6720 8850 10000 10300 13800 24400 28800 40100 50400
2026-04-28 23:00 8.09 8110 68500 (1952) 1030 (1963) 19500 6720 8850 10000 10300 13800 24400 28800 40100 50400
2026-04-28 22:00 8.10 8140 65700 (1938) 1020 (1963) 19400 6650 8720 9520 10100 13500 23500 28100 40000 50600
2026-04-28 21:00 8.10 8140 65700 (1938) 1020 (1963) 19400 6650 8720 9520 10100 13500 23500 28100 40000 50600
2026-04-28 20:00 8.10 8140 65700 (1938) 1020 (1963) 19400 6650 8720 9520 10100 13500 23500 28100 40000 50600
2026-04-28 19:00 8.10 8140 65700 (1938) 1020 (1963) 19400 6650 8720 9520 10100 13500 23500 28100 40000 50600
2026-04-28 18:00 8.09 8110 65700 (1938) 1020 (1963) 19400 6650 8720 9520 10100 13500 23500 28100 40000 50600
2026-04-28 17:00 8.08 8070 65700 (1938) 1020 (1963) 19400 6650 8720 9520 10100 13500 23500 28100 40000 50600
2026-04-28 16:00 8.06 8000 65700 (1938) 1020 (1963) 19400 6650 8720 9520 10100 13500 23500 28100 40000 50600
2026-04-28 15:00 8.01 7840 65700 (1938) 1020 (1963) 19400 6650 8720 9520 10100 13500 23500 28100 40000 50600
2026-04-28 14:00 7.94 7600 65700 (1938) 1020 (1963) 19400 6650 8720 9520 10100 13500 23500 28100 40000 50600
2026-04-28 13:00 7.80 7150 65700 (1938) 1020 (1963) 19400 6650 8720 9520 10100 13500 23500 28100 40000 50600
2026-04-28 12:00 7.62 6590 65700 (1938) 1020 (1963) 19400 6650 8720 9520 10100 13500 23500 28100 40000 50600
2026-04-28 11:00 7.49 6210 65700 (1938) 1020 (1963) 19400 6650 8720 9520 10100 13500 23500 28100 40000 50600
2026-04-28 10:00 7.46 6120 65700 (1938) 1020 (1963) 19400 6650 8720 9520 10100 13500 23500 28100 40000 50600
2026-04-28 09:00 7.47 6150 65700 (1938) 1020 (1963) 19400 6650 8720 9520 10100 13500 23500 28100 40000 50600
2026-04-28 08:00 7.47 6150 65700 (1938) 1020 (1963) 19400 6650 8720 9520 10100 13500 23500 28100 40000 50600
2026-04-28 07:00 7.48 6180 65700 (1938) 1020 (1963) 19400 6650 8720 9520 10100 13500 23500 28100 40000 50600
2026-04-28 06:00 7.48 6180 65700 (1938) 1020 (1963) 19400 6650 8720 9520 10100 13500 23500 28100 40000 50600
2026-04-28 05:00 7.50 6240 65700 (1938) 1020 (1963) 19400 6650 8720 9520 10100 13500 23500 28100 40000 50600
2026-04-28 04:00 7.54 6350 65700 (1938) 1020 (1963) 19400 6650 8720 9520 10100 13500 23500 28100 40000 50600
2026-04-28 03:00 7.60 6530 65700 (1938) 1020 (1963) 19400 6650 8720 9520 10100 13500 23500 28100 40000 50600
2026-04-28 02:00 7.66 6710 65700 (1938) 1020 (1963) 19400 6650 8720 9520 10100 13500 23500 28100 40000 50600
2026-04-28 01:00 7.78 7090 65700 (1938) 1020 (1963) 19400 6650 8720 9520 10100 13500 23500 28100 40000 50600
2026-04-28 00:00 7.95 7640 65700 (1938) 1020 (1963) 19400 6650 8720 9520 10100 13500 23500 28100 40000 50600
2026-04-27 23:00 8.07 8040 65700 (1938) 1020 (1963) 19400 6650 8720 9520 10100 13500 23500 28100 40000 50600

A total of 177 rows are displayed for years 1922 through 2025.